Terug naar catalogus

INTELSAT 33E DEB

ActiefGEO
NORAD 64411·DEBRIS· XX

Gelanceerd Aug 24, 2016 vanaf Guiana Space Centre

Loading…

TLE

VersSource: Space-Track

Epoch: Sep 3, 2026, 18:21 UTC

1 64411U 16053AR  26246.76477029  .00000022  00000-0  00000-0 0  9997
2 64411   1.5826  60.9419 0091954 358.7781   1.8375  1.00876855  6736

Volg INTELSAT 33E DEB in realtime met AllMySat

Download on the App Store